Location: El Gavilán
(32.5178°N, 116.7422°W)
Time: 15:02:00
(UTC+00:00)

Daily predictions for brighter satellites

Satellite Brightness Start Highest point End
(mag) Time Altitude Azimuth Time Altitude Azimuth Time Altitude Azimuth
Cosmos 1943 Rocket 4.4 12:00:12 10° SSE 12:04:37 24° E 12:09:04 10° NE
ATLAS 5 CENTAUR R/B 1.3 12:04:45 10° SW 12:07:53 45° WNW 12:11:08 10° NNE
Cosmos-2242 3.0 12:03:35 10° N 12:07:54 80° W 12:12:09 10° S
Cosmos 1939 Rocket 3.7 12:06:08 10° NNE 12:10:01 53° E 12:13:49 10° S
Cosmos 1515 3.6 12:06:46 10° N 12:10:14 81° E 12:13:42 10° S
